Live-Position
3D-Globus wird geladen...
Über Starlink 4478
Group: 3 satellites
Beschreibung wird geladen...
Nächste Überflüge
Passes for default location (London). Set your location on the main map for personalized predictions.
Höhenverlauf
Loading altitude history...
No altitude history available
Zweizeiliger Elementsatz
1 53529U 22101C 26123.42080103 .00016251 00000-0 92635-3 0 9995
2 53529 53.2137 187.0498 0001193 292.6771 67.4097 15.12936518204440
Epoch: 3. Mai 2026 •
Age: 15 hours
Aktueller Status
Höhe 532.5 km
Geschwindigkeit 7.60 km/s
Subsatellitenpunkt 45.54°N,
1.99°E
Startdatum 19. Aug. 2022
Alter 3.7 years
Typ internet
Startgruppe
Falcon 9 •
Group 4-27 •
47 satellites
Starlink 4503
53528
Starlink 4482 53530
Starlink 4487 53531
Starlink 4483 53532
Starlink 4493 53533
Starlink 4138 53535
Starlink 4053 53536
Starlink 4120 53537
Starlink 4123 53539
Starlink 4486 53540
Starlink 4485 53541
Starlink 4489 53542
Starlink 4297 53543
Starlink 4303 53544
Starlink 4475 53545
Starlink 4477 53546
Starlink 4474 53547
Starlink 4513 53548
Starlink 4514 53551
Starlink 4495 53552
...and 26 more
Technische Details
Klassifizierung Payload
Masse 300.00 kg
Trockenmasse 290.00 kg
Gesamtmasse 300.00 kg
Länge 0.20 m
Durchmesser 2.80 m
Spannweite 9.00 m
Form Box + pan
Hersteller SPXS
Bus-Typ Starlink
Phasenstatus In Orbit
Besitzer/Staat SPXS/US
Most Searched
Loading...